Regional Weather Roundup
Issued by NWS Cleveland, OH

Home | Current Version | Previous Version | Text Only | Print | Product List | Glossary Off
Versions: 1 2 3 4 5 6 7 8 9 10 11 12 13 14 15 16 17 18 19 20 21 22 23 24 25 26 27 28 29 30 31 32 33 34 35 36 37 38 39 40 41 42 43 44 45 46 47 48 49 50

619
ASUS41 KCLE 222310
RWRCLE
OHIO REGIONAL WEATHER ROUNDUP
NATIONAL WEATHER SERVICE CLEVELAND, OH
700 PM EDT FRI SEP 22 2017

NOTE: "FAIR" INDICATES FEW OR NO CLOUDS BELOW 12,000 FEET WITH NO
SIGNIFICANT WEATHER AND/OR OBSTRUCTIONS TO VISIBILITY.

OHZ001>008-015>018-024>027-034-035-043-044-230000-
   NORTHWEST OHIO

CITY           SKY/WX    TMP DP  RH WIND       PRES   REMARKS
DEFIANCE       CLEAR     86  70  58 NE3       30.07R HX  90
FINDLAY        CLEAR     86  64  47 NE8       30.06S
TOLEDO EXPRESS CLEAR     85  71  63 E6        30.08R HX  90
TOLEDO EXEC    CLEAR     82  66  58 E6        30.09R
LIMA           CLEAR     85  67  54 NE6       30.07S
$$

OHZ009>014-019>023-028>033-038-089-230000-
   NORTHEAST OHIO

CITY           SKY/WX    TMP DP  RH WIND       PRES   REMARKS
CLE-HOPKINS    PTCLDY    84  60  44 N8        30.10S
CLE-LAKEFRONT  CLEAR     76  66  71 NE8       30.07S
CUY CO. ARPT   PTCLDY    81  63  54 E7        30.10S
LORAIN-ELYRIA  CLEAR     78  58  49 NE6       30.09S
ASHTABULA      CLEAR     75  57  53 NE3       30.11F
AKRON-CANTON   MOCLDY    80  58  46 NE6       30.09F
WOOSTER        CLEAR     75  67  76 N3        30.10S
MANSFIELD      CLEAR     83  60  45 E3        30.10S
YOUNGSTOWN     MOCLDY    78  62  57 NE5       30.10S
$$

OHZ042-051>053-060>062-070>072-077>081-230000-
  SOUTHWEST OHIO

CITY           SKY/WX    TMP DP  RH WIND       PRES   REMARKS
CINC-COVINGTON PTCLDY    82  70  66 S5        30.05S
CINC-LUNKEN    CLEAR     82  74  76 CALM      30.03S
HAMILTON       CLEAR     82  73  74 CALM      30.05R
DAYTON         PTCLDY    83  65  54 E6        30.07R
WRIGHT-PAT AFB PTCLDY    86  64  47 E6        30.05S
DAYTON GENERAL CLEAR     85  67  54 CALM      30.05S
WILMINGTON     CLEAR     81  67  62 SE5       30.06S
$$

OHZ036-037-039>041-045>050-054>059-063>069-073>076-082>088-230000-
  CENTRAL AND SOUTHEAST OHIO

CITY           SKY/WX    TMP DP  RH WIND       PRES   REMARKS
COLUMBUS       PTCLDY    86  65  49 CALM      30.05S
OSU AIRPORT    CLEAR     83  67  58 E5        30.06S
BOLTON FIELD   CLEAR     82  70  65 SW3       30.06S
RICKENBACK AFB CLEAR     84  64  51 E3        30.05S
NEWARK         CLOUDY    83  65  54 SE3       30.06S
MARION         CLEAR     84  61  45 E7        30.07R
LANCASTER      PTCLDY    81  67  62 E5        30.06S
ZANESVILLE     CLOUDY    84  65  52 N3        30.06S
NEW PHILLY     NOT AVBL
$$




USA.gov is the U.S. government's official web portal to all federal, state and local government web resources and services.